RH
69 67 66 68 72 82 78 88 87 85 83 99 94 94 64 54 44 40 45 29 34 34 30 27 24 24 24 17 20 27 34 44 50 30 27 24 31 38 45 76 52 67 64 48
72 69 67 68 73 78 93 92 71 86 85 97 85 61 48 42 43 42 43 50 33 39 39 38 30 33 24 14 22 30 35 47 71 42 36 31 36 32 57 64 60 56 73 54
74 70 68 67 70 73 96 92 99 92 92 80 78 71 54 48 38 39 36 39 43 51 47 38 36 38 33 24 28 47 42 44 56 69 51 50 51 38 68 58 84 66 63 46
77 74 69 67 69 74 95 87 92 77 97 93 81 70 60 55 45 40 40 45 47 52 52 42 39 39 38 32 49 35 35 47 48 41 35 33 34 33 56 56 51 59 46 40
80 78 74 73 70 73 95 94 90 78 79 63 65 72 66 60 51 44 47 50 47 60 60 53 60 53 52 42 42 39 37 50 43 48 35 28 25 29 43 43 42 39 34 31
81 80 78 76 71 75 84 72 73 77 76 70 69 69 60 52 46 48 43 55 62 62 61 50 50 48 50 49 46 43 45 53 58 58 36 36 47 28 25 37 38 34 44 36
83 81 80 79 76 76 90 78 87 93 93 68 54 48 44 54 54 52 49 63 75 70 60 54 51 45 42 42 37 40 45 52 71 78 58 63 41 26 24 28 31 31 30 34
84 83 82 81 79 75 92 75 89 97 92 65 52 48 57 68 65 73 63 66 69 74 66 75 75 82 58 50 36 39 40 60 83 75 77 50 38 32 29 30 33 29 43 44
86 85 84 82 81 75 88 78 71 92 99 80 57 67 66 90 92 86 74 82 85 74 90 92 93 94 70 57 39 30 34 55 65 87 74 68 50 28 24 25 46 32 40 44
87 86 85 84 82 77 85 76 78 88 99 75 69 76 83 75 85 93 88 89 90 84 99 100 92 88 53 63 54 55 53 66 79 90 81 60 32 22 22 43 52 39 38 43
87 87 86 85 83 81 86 81 74 90 95 82 67 68 85 78 90 97 93 94 97 99 99 99 96 87 74 62 52 50 57 74 90 88 88 73 32 26 33 43 41 40 41 43
87 87 86 86 84 83 81 91 68 67 93 92 79 73 68 73 70 80 94 97 96 98 100 97 95 95 83 73 78 43 60 61 75 65 73 54 42 31 42 37 36 56 56 52
87 87 86 86 85 81 82 89 78 83 90 84 78 72 57 50 54 63 92 95 89 93 94 98 98 93 77 85 78 59 45 39 64 54 47 42 41 39 38 35 51 52 48 46
87 86 86 85 85 81 78 94 81 84 87 97 82 48 64 51 48 56 70 70 87 91 96 99 99 97 77 85 68 62 46 48 48 55 43 40 40 38 36 42 47 45 45 43
86 86 85 84 80 78 87 93 83 76 90 98 94 64 46 45 54 54 55 76 85 94 99 100 98 91 90 84 70 73 54 49 58 63 42 50 44 36 39 44 45 43 42 44
85 84 81 79 82 82 93 99 81 70 86 97 99 69 57 50 52 60 58 68 91 94 98 96 93 79 86 96 94 53 45 42 44 46 34 41 40 35 38 42 43 40 41 40
84 83 81 80 82 93 96 92 92 85 84 95 97 87 56 41 47 65 73 74 93 94 96 98 88 86 92 95 86 57 50 46 43 42 41 46 41 39 40 40 40 46 38 36
83 82 81 81 81 81 91 72 76 86 89 89 98 91 69 51 75 77 82 94 96 96 97 95 94 84 94 97 65 55 47 44 42 42 39 42 44 42 40 38 37 38 38 38
77 76 77 89 94 98 92 70 74 96 97 99 96 92 89 65 77 81 89 94 100 96 99 95 92 94 98 78 67 58 53 50 48 44 46 47 41 40 39 38 38 40 40 38
79 87 99 100 95 75 74 84 94 95 96 99 95 76 78 84 94 98 93 95 98 90 91 96 99 87 64 58 61 59 56 52 48 52 55 57 48 44 42 38 37 40 40 43
97 99 95 91 78 88 91 99 98 93 94 87 84 72 76 61 87 98 98 99 98 97 95 95 97 96 61 53 63 52 48 45 46 48 49 47 46 46 50 46 44 45 45 48
86 89 89 94 97 96 97 97 94 95 85 79 82 66 58 66 76 95 98 99 97 93 95 99 92 57 44 51 52 54 53 51 52 51 52 51 52 48 46 48 48 46 48 52
86 89 90 96 93 98 99 95 89 83 76 63 62 81 72 73 63 93 99 99 98 93 100 95 91 62 62 66 59 52 50 52 51 49 53 55 55 53 50 52 48 52 52 53
95 96 99 95 94 94 87 67 65 61 63 57 58 88 95 96 88 85 92 96 100 98 99 94 99 88 81 75 70 71 70 52 55 64 61 63 58 56 57 56 60 59 65 66
93 93 93 94 73 78 70 58 52 47 50 57 90 97 95 99 98 91 89 88 93 89 92 98 96 87 81 81 75 75 81 81 70 70 74 74 68 63 67 65 59 65 75 76
97 95 92 90 89 85 80 80 88 81 78 74 80 87 99 97 98 99 81 91 88 92 100 99 94 86 84 80 77 75 70 74 78 72 74 78 77 76 75 76 79 79 81 83
91 95 88 91 87 83 76 71 94 83 72 95 90 90 81 92 99 98 96 99 98 97 98 94 89 88 88 80 79 81 76 82 78 77 75 79 78 80 80 88 85 79 81 84
Wind_Speed
6 6 8 10 14 20 6 3 2 2 3 1 4 3 3 5 14 11 5 4 4 6 8 6 9 10 5 6 2 5 3 6 5 8 1 5 6 7 6 7 5 3 6 7
7 5 6 8 10 12 4 4 3 3 2 3 4 6 10 9 13 13 4 5 5 7 7 6 4 6 6 6 4 4 2 0 3 3 7 5 2 4 4 3 4 7 7 7
9 7 4 5 8 10 3 3 3 5 1 3 4 6 10 11 9 17 13 12 7 6 8 5 7 3 2 4 5 5 5 4 8 8 8 6 3 3 4 7 4 4 7 4
11 8 6 3 6 9 2 3 4 2 3 4 6 8 9 8 12 9 4 4 7 9 6 6 7 2 3 2 3 3 5 3 1 4 6 6 7 6 8 6 5 6 5 7
13 11 8 3 4 8 2 2 3 4 5 7 7 5 5 12 13 5 6 8 8 8 3 3 4 6 4 2 2 3 0 3 3 5 8 5 7 11 12 9 5 6 7 8
15 13 10 6 4 1 4 4 4 2 4 5 4 4 7 11 10 9 7 3 7 10 4 4 3 6 8 7 4 7 6 4 3 4 4 5 8 8 6 8 7 13 8 9
16 13 11 9 7 6 2 3 3 1 4 4 6 13 16 12 12 9 7 6 2 2 14 2 5 7 9 10 7 8 7 7 4 4 4 2 9 5 7 9 7 8 5 18
16 15 13 12 9 7 1 3 2 3 4 4 11 11 11 9 13 14 8 4 4 2 5 5 5 6 6 6 6 6 6 6 3 5 3 5 6 6 6 6 7 4 14 17
17 16 16 14 11 9 2 3 2 1 3 4 11 9 8 5 5 5 2 5 5 4 2 4 7 5 4 4 3 5 7 6 7 3 5 8 9 8 4 7 5 5 21 19
17 17 15 14 12 11 4 3 2 2 3 5 5 2 3 4 4 4 3 7 5 2 3 2 4 5 7 6 6 5 3 1 7 4 4 7 7 7 5 7 11 10 19 20
17 17 16 15 14 12 5 4 4 3 3 6 5 7 5 5 2 2 6 6 2 3 3 2 3 4 6 4 4 7 7 6 4 3 3 7 4 3 9 8 1 14 14 13
17 17 16 16 15 13 8 2 3 2 3 6 4 9 11 10 7 3 1 2 3 4 2 1 2 4 2 4 4 4 5 8 7 9 9 7 2 7 5 6 8 5 10 15
17 16 16 15 15 14 11 2 3 3 1 6 6 8 15 13 12 5 3 2 3 3 1 3 4 5 2 3 6 4 4 5 6 4 6 7 7 3 7 7 10 10 17 18
17 16 15 14 14 14 12 3 2 1 2 3 6 6 5 9 10 12 8 5 3 4 2 1 4 3 2 3 5 6 7 2 6 5 7 4 5 8 8 11 16 16 15 17
17 16 14 13 13 13 5 2 3 3 4 3 6 13 18 13 9 16 11 9 5 2 2 3 3 5 5 4 3 5 2 2 2 6 6 6 6 9 11 17 15 18 16 14
16 15 14 12 11 10 3 2 5 7 3 1 4 5 6 10 8 10 11 8 4 3 3 2 4 6 4 4 4 5 6 4 5 6 6 5 10 13 10 14 16 14 15 17
16 14 12 11 12 5 4 5 3 4 5 2 4 5 7 16 10 3 3 7 4 4 3 3 3 3 6 4 10 11 18 13 13 11 7 3 7 9 15 17 14 14 15 15
16 13 11 10 11 6 5 8 2 4 0 3 4 6 4 5 4 4 4 4 3 3 3 3 4 3 4 8 4 12 17 19 17 17 16 8 8 14 14 17 17 18 16 15
15 13 11 3 2 4 4 6 6 3 2 2 4 3 4 2 2 4 2 4 4 4 5 5 5 4 9 4 8 9 12 11 11 11 9 6 15 18 18 18 18 19 16 16
17 7 3 3 5 7 8 3 1 2 4 3 5 4 7 4 3 4 3 4 5 5 6 5 6 8 14 11 9 8 11 11 6 6 6 4 13 18 19 21 18 17 17 16
2 3 4 1 14 3 3 4 5 5 5 6 6 9 6 3 4 4 3 4 5 5 6 9 5 6 17 17 19 18 19 19 13 7 9 12 14 15 13 13 14 15 18 18
8 5 4 4 2 3 6 6 5 7 8 5 6 10 9 4 3 4 4 3 4 6 7 5 5 10 8 10 17 22 21 21 15 10 9 11 10 14 17 15 16 17 17 19
4 3 4 4 5 8 10 10 5 4 5 7 6 4 5 3 2 2 3 5 5 1 2 5 6 4 6 8 7 7 18 21 19 15 8 11 12 12 15 16 15 19 19 17
3 5 5 7 6 6 6 6 7 6 2 5 4 4 3 3 3 4 4 4 1 5 6 7 2 5 6 7 7 8 16 17 16 10 10 12 17 14 15 17 18 20 18 16
4 4 5 8 6 5 7 6 5 5 5 4 3 4 4 2 4 3 2 3 4 5 6 2 3 5 6 6 7 8 8 11 9 9 10 11 15 18 16 17 18 18 19 17
2 4 4 4 3 5 4 2 3 4 3 2 3 4 3 4 4 4 7 4 6 5 2 2 3 5 6 6 6 8 10 10 9 11 14 15 17 20 19 16 18 18 19 19
4 4 4 5 5 5 3 3 3 3 1 2 3 4 6 2 5 6 4 4 5 11 5 4 6 6 6 7 6 7 10 2 11 14 16 16 18 20 21 21 16 18 17 16
Wind_Direction
245 281 317 339 347 339 0 284 300 216 104 196 214 201 255 272 282 292 292 299 304 280 336 294 172 211 227 179 132 144 134 136 149 201 125 148 167 198 144 125 249 215 141 262
222 256 306 339 350 5 335 278 257 270 123 219 272 283 269 246 266 276 274 285 249 331 309 331 323 97 326 72 86 106 44 292 59 40 2 357 187 192 119 130 112 204 143 254
212 226 268 323 338 344 353 286 351 321 224 272 300 298 252 260 243 256 276 268 317 326 291 278 288 58 48 4 92 97 85 200 155 181 201 153 198 223 143 134 124 225 202 226
206 215 236 279 326 334 342 262 256 201 277 296 258 281 297 277 260 219 233 276 256 266 281 289 265 57 123 338 151 95 118 196 148 253 209 163 183 187 164 181 187 166 231 236
202 205 216 231 298 327 255 269 20 349 299 309 305 255 265 274 287 306 241 224 257 287 282 82 6 8 17 180 105 130 42 257 206 275 270 229 213 192 191 197 191 248 262 273
202 203 204 207 232 346 272 315 347 13 290 309 320 255 254 262 279 296 233 309 322 237 242 81 338 281 274 256 203 189 151 145 82 247 230 255 277 209 201 197 195 197 201 198
200 199 202 206 202 215 336 299 326 327 271 274 288 325 322 347 297 264 292 63 356 351 315 107 13 322 295 268 257 167 160 150 123 204 49 232 244 230 208 232 220 210 229 145
197 196 200 203 203 218 240 303 0 319 283 289 292 310 340 334 325 298 295 187 195 330 301 61 38 328 346 293 269 198 152 133 119 139 195 272 301 252 172 168 256 249 114 120
194 194 196 198 199 207 224 281 294 259 318 242 353 331 331 9 324 304 322 30 350 49 21 89 148 211 215 235 228 222 184 138 134 137 155 209 230 246 215 118 268 158 136 143
193 193 192 196 199 201 197 264 308 258 264 278 337 357 328 342 338 300 359 349 324 28 68 27 154 217 185 224 190 190 145 110 155 155 191 273 260 163 104 116 233 130 146 151
189 191 191 192 196 198 178 259 238 175 279 289 284 312 328 329 356 333 353 335 309 29 112 204 272 203 239 159 236 192 157 156 181 117 103 261 214 109 148 210 112 134 142 148
186 189 187 189 194 193 180 264 272 239 171 254 309 264 253 264 280 304 65 287 339 327 267 200 201 271 285 180 217 191 216 168 181 167 204 231 240 192 172 142 126 116 119 132
183 184 185 188 193 192 186 227 276 354 299 288 252 253 250 236 243 211 205 216 206 85 100 305 287 256 192 211 243 341 244 180 171 132 250 221 220 144 140 129 122 126 130 137
178 179 180 185 191 193 193 193 252 18 311 269 285 272 281 288 237 214 195 195 178 138 87 294 270 250 326 246 229 221 223 359 192 214 246 159 138 142 138 111 124 125 132 138
174 171 173 179 189 197 190 234 263 255 169 300 303 310 286 261 257 218 213 197 189 159 202 230 265 307 351 296 288 262 222 216 147 229 218 154 186 161 126 135 140 141 138 135
165 164 169 178 181 171 116 304 232 233 180 273 287 298 278 271 258 206 210 205 171 165 161 236 239 247 293 284 269 228 219 282 309 279 262 183 187 170 140 137 143 142 139 142
155 161 170 180 180 157 166 187 173 358 130 194 274 259 236 220 222 213 172 172 163 140 183 211 245 299 332 243 249 284 295 299 295 302 284 64 152 159 139 134 133 124 130 136
155 162 170 181 184 188 245 263 175 81 119 199 239 259 289 162 174 197 170 147 125 192 194 212 217 220 206 246 217 242 262 274 283 292 307 200 127 123 129 130 130 133 141 139
158 157 156 108 119 189 231 164 153 130 157 275 231 201 269 263 193 152 146 135 190 196 207 205 174 215 226 225 212 246 261 255 270 284 300 157 142 147 144 143 143 143 148 143
142 110 111 177 192 170 97 55 217 208 198 202 265 304 252 73 73 311 147 163 210 204 219 156 211 245 250 239 236 264 262 259 260 224 263 251 148 155 161 166 155 150 147 140
103 130 184 213 150 89 126 194 192 205 220 211 218 223 252 288 152 191 227 206 185 211 201 185 224 249 245 236 229 236 247 256 245 240 221 200 182 158 145 152 146 141 141 142
157 148 95 106 207 174 183 203 197 214 206 201 186 204 213 245 162 131 252 256 201 238 163 175 244 245 217 209 217 224 229 244 242 220 250 196 167 166 157 149 142 141 135 136
104 83 133 128 210 196 195 191 210 212 236 164 179 187 164 189 173 192 239 220 219 351 167 213 233 11 20 1 341 267 229 229 240 236 212 185 153 143 144 139 137 131 134 138
124 143 201 195 216 231 200 185 184 214 135 118 143 130 109 315 179 202 234 238 233 194 183 227 327 324 322 331 328 320 333 234 219 205 184 161 150 140 131 135 135 135 134 139
175 179 223 220 228 224 246 228 191 214 182 159 104 84 103 217 277 207 218 244 254 228 233 152 250 299 310 321 328 333 314 331 250 174 154 144 134 129 128 135 133 127 126 127
195 237 267 252 289 269 265 66 26 344 354 81 85 121 260 186 229 207 210 203 208 274 334 253 299 302 306 308 313 311 310 294 244 146 140 136 137 134 125 115 120 123 125 126
218 237 227 249 272 262 276 120 182 307 1 133 72 130 215 311 254 198 206 49 349 326 330 315 309 302 300 304 314 334 336 296 135 129 130 124 119 119 117 118 121 116 118 117